Location: Betzi
(47.2343°N, 9.5260°E)
Time: 23:09:51
(UTC+00:00)

Cosmos 2218 Rocket - Pass Details

Date: 27 May 2022
Orbit: 956 x 1005 km, 82.9° (Epoch: 26 June)

Event Time Altitude Azimuth Distance (km) Brightness Sun altitude
Rises 02:07:53 0° 353° (N) 3,670 7.7 -11.7°
Reaches altitude 10° 02:10:25 10° 356° (N) 2,725 7.0 -11.4°
Maximum altitude 02:16:38 67° 79° (ENE) 1,060 4.4 -10.7°
Drops below altitude 10° 02:22:53 10° 162° (SSE) 2,741 6.1 -10.0°
Sets 02:25:26 0° 165° (SSE) 3,692 6.7 -9.7°
